Location: ????????
(55.0559°N, 39.1270°E)
Time: 00:38:11
(UTC+00:00)

Cosmos 968 Rocket - Pass Details

Date: 15 November 2025
Orbit: 735 x 766 km, 74.0° (Epoch: 12 December)

Event Time Altitude Azimuth Distance (km) Brightness Sun altitude
Exits shadow 02:25:09 21° 335° (NNW) 1,683 5.0 -21.2°
Maximum altitude 02:28:46 84° 62° (ENE) 778 3.5 -20.7°
Drops below altitude 10° 02:34:01 10° 151° (SSE) 2,303 6.4 -19.9°
Sets 02:36:23 0° 152° (SSE) 3,225 7.2 -19.6°
